Regional Weather Roundup
Issued by NWS

Home | Current Version | Previous Version | Graphics & Text | Print | Product List | Glossary On
Versions: 1 2 3 4 5 6 7 8 9 10 11 12 13 14 15 16 17 18 19 20 21 22 23 24 25 26 27 28 29 30 31 32 33 34 35 36 37 38 39 40 41 42 43 44 45 46 47 48 49 50
806
ASUS43 KBIS 241910
RWRND

NORTH DAKOTA REGIONAL WEATHER ROUNDUP
NATIONAL WEATHER SERVICE BISMARCK ND
200 PM CDT FRI MAR 24 2017

NOTE: "FAIR" INDICATES FEW OR NO CLOUDS BELOW 12,000 FEET WITH NO
SIGNIFICANT WEATHER AND/OR OBSTRUCTIONS TO VISIBILITY.


NDZ001>003-009>011-017-242000-
NORTHWEST NORTH DAKOTA

CITY           SKY/WX    TMP DP  RH WIND       PRES   REMARKS
WILLISTON      FAIR      51  32  48 SE8       30.10F
MINOT          FAIR      38  28  67 E14       30.19F
MINOT AFB      MOSUNNY   35  27  72 SE14      30.19S
$$

NDZ018>021-031>035-040>046-242000-
SOUTHWEST NORTH DAKOTA

CITY           SKY/WX    TMP DP  RH WIND       PRES   REMARKS
BISMARCK       FAIR      43  32  65 E8        30.19S
DICKINSON      FAIR      52  33  48 SE10      30.09F
GARRISON         N/A     38  30  73 E9        30.16F
HETTINGER ARPT SUNNY     50  38  63 SE8       30.12F
$$

NDZ004>008-012>016-024-026-027-054-242000-
NORTHEAST NORTH DAKOTA

CITY           SKY/WX    TMP DP  RH WIND       PRES   REMARKS
GRAND FORKS    CLOUDY    36  28  73 N13       30.22R
GRND FRKS AFB  CLOUDY    34  27  76 N12       30.22R
DEVILS LAKE    CLOUDY    32  26  78 NE10      30.23R
$$

NDZ022-023-025-028>030-036>039-047>053-242000-
SOUTHEAST NORTH DAKOTA

CITY           SKY/WX    TMP DP  RH WIND       PRES   REMARKS
FARGO          CLOUDY    36  30  79 N16       30.19S
JAMESTOWN      PTSUNNY   38  31  76 N9        30.18S
$$





USA.gov is the U.S. government's official web portal to all federal, state and local government web resources and services.